P/2005 R1 ( NEAT )

Japanese version
Home page
Updated on June 18, 2018

---------------------------------------------------------------------

* Profile

Discovery Date September 2, 2005
Magnitude 18.0 mag
Discoverer Near-Earth-Asteroid Tracking Team (Jet Propulsion Laboratory)

* Pictures

* Orbital Elements

Epoch 2005 Sept. 27.0 TT = JDT 2453640.5
T 2005 Oct. 8.41305 TT                                  MPCW
q   2.0470838            (2000.0)            P               Q
n   0.07633789     Peri.  117.95223     +0.92509122     -0.27614993
a   5.5035463      Node   259.06537     +0.18074723     +0.92388329
e   0.6280428      Incl.   15.39592     +0.33397106     +0.26491675
P  12.91
From 360 observations 2005 July 5-2018 June 14, mean residual 0".6.

* Finding Charts

* Magnitudes Graph

        m1 = 13.5 + 5 log d + 10.0 log r

---------------------------------------------------------------------

The orbital elements are published on M.P.E.C. 2018-L76.
The charts are made with StellaNavigator Ver.2.0 for Windows (AstroArts / ASCII).
The magnitudes graphs are made with Comet for Windows.

---------------------------------------------------------------------

Copyright(C) Seiichi Yoshida (comet@aerith.net). All rights reserved.